Location: Unspecified
(0.0000°N, 0.0000°E)
Time: 09:44:51
(UTC+00:00)

Vanguard 2 - Pass Details

Date: 22 October 2021
Orbit: 554 x 2936 km, 32.9° (Epoch: 06 December)

Event Time Altitude Azimuth Distance (km) Brightness Sun altitude
Rises 22:41:43 0° 240° (WSW) 6,730 12.6 -70.7°
Reaches altitude 10° 22:46:11 10° 242° (WSW) 5,763 12.1 -71.6°
Enters shadow 22:51:44 25° 247° (WSW) 4,582 11.4 -72.7°
Maximum altitude 23:04:00 69° 322° (NW) 2,748 - -74.8°
Drops below altitude 10° 23:17:06 10° 45° (NE) 4,388 - -76.7°
Sets 23:20:02 0° 48° (NE) 5,109 - -77.1°
